Change the Weather History Date:

Thursday, November 8, 2012

  Actual Average Record
Temperature  
Mean Temperature 58 °F -  
Max Temperature 69 °F 63 °F 75 °F (2006)
Min Temperature 46 °F 45 °F 41 °F (1998)
Degree Days  
Heating Degree Days 8    
Growing Degree Days 8 (Base 50)    
Moisture  
Dew Point 52 °F    
Average Humidity 78    
Maximum Humidity 93    
Minimum Humidity 48    
Precipitation  
Precipitation 0.00 in 0.06 in - ()
Sea Level Pressure  
Sea Level Pressure 30.21 in    
Wind  
Wind Speed 3 mph ()    
Max Wind Speed 10 mph    
Max Gust Speed -    
Visibility 7.3 miles    
Events      
Averages and records for this station are not official NWS values.
T = Trace of Precipitation, MM = Missing Value Source: Averaged Metar Reports

Daily Weather History Graph

Daily Weather History Graph

Search for Another Location

Airport or City:

Trip Planner

Search our weather history database for the weather conditions in past years. The results will help you decide how hot, cold, wet, or windy it might be!

Date:

Astronomy

Nov. 08, 2012 Rise Set
Actual Time 7:25 AM CET 5:39 PM CET
Civil Twilight 6:57 AM CET 6:07 PM CET
Nautical Twilight 6:25 AM CET 6:40 PM CET
Astronomical Twilight 5:53 AM CET 7:11 PM CET
Moon 1:06 AM CET (11/8) 2:11 PM CET (11/8)
Length of Visible Light 11h 10m
Length of Day
10h 14m
Waning Crescent, 35% of the Moon is Illuminated
Nov 8
Waning Crescent
Nov 13
New
Nov 20
First Quarter
Nov 28
Full
Dec 6
Last Quarter

Hourly Weather History & Observations

Time (CET) Temp. Dew Point Humidity Pressure Visibility Wind Dir Wind Speed Gust Speed Precip Events Conditions
12:00 AM 48.2 °F 44.6 °F 87% 30.33 in - East 1.2 mph - N/A   Clear
12:30 AM 46.4 °F 44.6 °F 93% 30.30 in - East 2.3 mph - N/A   Clear
1:00 AM 48 °F 43 °F 78% 30.31 in 16 mi ESE 5.8 mph - -   Scattered Clouds
1:00 AM 50.0 °F 46.4 °F 87% 30.30 in - East 4.6 mph - N/A   Clear
1:30 AM 50.0 °F 46.4 °F 87% 30.30 in - NNW 4.6 mph - N/A   Clear
2:00 AM 50.0 °F 46.4 °F 87% 30.30 in - North 4.6 mph - N/A   Clear
2:30 AM 50.0 °F 44.6 °F 82% 30.30 in - Calm Calm - N/A   Clear
3:00 AM 50.0 °F 44.6 °F 82% 30.27 in - Calm Calm - N/A   Clear
3:30 AM 50.0 °F 46.4 °F 87% 30.27 in - Calm Calm - N/A   Clear
4:00 AM 50.0 °F 46.4 °F 87% 30.27 in - Calm Calm - N/A   Clear
4:30 AM 50.0 °F 46.4 °F 87% 30.27 in - Calm Calm - N/A   Clear
5:00 AM 50.0 °F 46.4 °F 87% 30.27 in - Calm Calm - N/A   Clear
5:30 AM 50.0 °F 46.4 °F 87% 30.27 in - Calm Calm - N/A   Clear
6:00 AM 50.0 °F 46.4 °F 87% 30.27 in - Calm Calm - N/A   Clear
6:30 AM 50.0 °F 46.4 °F 87% 30.27 in - Calm Calm - N/A   Clear
7:00 AM 50.0 °F 46.4 °F 87% 30.24 in - Calm Calm - N/A   Clear
7:30 AM 48.2 °F 44.6 °F 87% 30.24 in - Calm Calm - N/A   Clear
8:00 AM 50.0 °F 44.6 °F 82% 30.27 in 6.2 mi Calm Calm - N/A   Partly Cloudy
8:30 AM 51.8 °F 46.4 °F 82% 30.27 in 6.2 mi Calm Calm - N/A   Partly Cloudy
9:00 AM 51.8 °F 48.2 °F 88% 30.27 in 6.2 mi Calm Calm - N/A   Partly Cloudy
9:30 AM 53.6 °F 50.0 °F 88% 30.27 in 6.2 mi Calm Calm - N/A   Partly Cloudy
10:00 AM 59.0 °F 50.0 °F 72% 30.27 in 6.2 mi Variable 1.2 mph - N/A   Partly Cloudy
10:30 AM 62.6 °F 51.8 °F 68% 30.24 in 6.2 mi NNE 3.5 mph - N/A   Partly Cloudy
11:00 AM 62.6 °F 53.6 °F 72% 30.24 in 6.2 mi ENE 8.1 mph - N/A   Partly Cloudy
11:30 AM 64.4 °F 53.6 °F 68% 30.24 in 6.2 mi ENE 8.1 mph - N/A   Partly Cloudy
12:00 PM 66.2 °F 55.4 °F 68% 30.21 in 6.2 mi ENE 6.9 mph - N/A   Partly Cloudy
12:30 PM 66.2 °F 53.6 °F 64% 30.21 in - ENE 8.1 mph - N/A   Clear
1:00 PM 67 °F 52 °F 48% 30.20 in 19 mi NE 10.4 mph - -   Scattered Clouds
1:00 PM 68.0 °F 53.6 °F 60% 30.18 in - ENE 9.2 mph - N/A   Clear
1:30 PM 68.0 °F 55.4 °F 64% 30.18 in - ENE 9.2 mph - N/A   Clear
2:00 PM 68.0 °F 53.6 °F 60% 30.15 in 6.2 mi ENE 9.2 mph - N/A   Partly Cloudy
2:30 PM 69.8 °F 55.4 °F 60% 30.15 in 6.2 mi East 8.1 mph - N/A   Partly Cloudy
3:00 PM 69.8 °F 55.4 °F 60% 30.15 in 6.2 mi ENE 6.9 mph - N/A   Partly Cloudy
3:30 PM 69.8 °F 55.4 °F 60% 30.12 in 6.2 mi East 4.6 mph - N/A   Partly Cloudy
4:00 PM 69.8 °F 55.4 °F 60% 30.12 in 6.2 mi SE 5.8 mph - N/A   Partly Cloudy
4:30 PM 68.0 °F 57.2 °F 68% 30.12 in 6.2 mi ESE 4.6 mph - N/A   Partly Cloudy
5:30 PM 64.4 °F 57.2 °F 77% 30.12 in 6.2 mi East 4.6 mph - N/A   Partly Cloudy
6:00 PM 62.6 °F 55.4 °F 77% 30.12 in 6.2 mi East 3.5 mph - N/A   Partly Cloudy
6:30 PM 60.8 °F 57.2 °F 88% 30.12 in 6.2 mi ENE 4.6 mph - N/A   Partly Cloudy
7:00 PM 61 °F 54 °F 72% 30.16 in 19 mi NE 4.6 mph - -   Scattered Clouds
7:00 PM 62.6 °F 57.2 °F 82% 30.15 in 6.2 mi NE 2.3 mph - N/A   Partly Cloudy
7:30 PM 62.6 °F 57.2 °F 82% 30.12 in 6.2 mi NE 2.3 mph - N/A   Partly Cloudy
8:00 PM 64.4 °F 57.2 °F 77% 30.12 in 6.2 mi Calm Calm - N/A   Partly Cloudy
8:30 PM 62.6 °F 57.2 °F 82% 30.12 in 6.2 mi ENE 3.5 mph - N/A   Scattered Clouds
9:00 PM 62.6 °F 57.2 °F 82% 30.12 in 6.2 mi NE 2.3 mph - N/A   Mostly Cloudy
9:30 PM 62.6 °F 59.0 °F 88% 30.12 in 6.2 mi Variable 1.2 mph - N/A   Mostly Cloudy
10:00 PM 62.6 °F 57.2 °F 82% 30.12 in 6.2 mi ENE 3.5 mph - N/A   Mostly Cloudy
10:30 PM 62.6 °F 59.0 °F 88% 30.12 in 6.2 mi ENE 1.2 mph - N/A   Mostly Cloudy
11:00 PM 62.6 °F 59.0 °F 88% 30.09 in 6.2 mi East 2.3 mph - N/A   Mostly Cloudy
11:30 PM 62.6 °F 59.0 °F 88% 30.09 in 6.2 mi East 1.2 mph - N/A   Mostly Cloudy